This is the latest recevied weather packets stored in our database for station/object WS4FSC-7. If no packets are shown the sender has not sent any weather packets the latest 10 day(s).
| Time | Temp. | Humidity | Pressure | Rain* | Wind** | Luminosity | Snow |
|---|---|---|---|---|---|---|---|
| 1787773311 | 30° C | 72% | 1015 hPa | - | - | 165 W/m² | - |
| 1787772951 | 30° C | 72% | 1015 hPa | - | - | 122 W/m² | - |
| 1787772771 | 30° C | 72% | 1015 hPa | - | - | 149 W/m² | - |
| 1787772410 | 30° C | 73% | 1015 hPa | - | - | 161 W/m² | - |
| 1787770791 | 28.89° C | 74% | 1016 hPa | - | - | 176 W/m² | - |
| 1787770071 | 28.33° C | 73% | 1016 hPa | - | - | 171 W/m² | - |
| 1787769711 | 27.78° C | 73% | 1016 hPa | - | - | 159 W/m² | - |
| 1787769532 | 27.78° C | 73% | 1016 hPa | - | - | 150 W/m² | - |
| 1787769174 | 27.78° C | 72% | 1015 hPa | - | - | 130 W/m² | - |
| 1787768992 | 27.78° C | 73% | 1015 hPa | - | - | 115 W/m² | - |
| 1787768811 | 27.22° C | 73% | 1015 hPa | - | - | 104 W/m² | - |
| 1787768630 | 27.22° C | 73% | 1016 hPa | - | - | 92 W/m² | - |
| 1787768450 | 26.67° C | 74% | 1016 hPa | - | - | 83 W/m² | - |
| 1787768271 | 26.67° C | 74% | 1016 hPa | - | - | 77 W/m² | - |
| 1787768091 | 26.67° C | 74% | 1016 hPa | - | - | 73 W/m² | - |
| 1787767911 | 26.67° C | 74% | 1016 hPa | - | - | 70 W/m² | - |
| 1787767551 | 26.67° C | 74% | 1016 hPa | - | - | 65 W/m² | - |
| 1787767191 | 27.22° C | 73% | 1016 hPa | - | - | 62 W/m² | - |
| 1787767013 | 27.22° C | 73% | 1016 hPa | - | - | 61 W/m² | - |
| 1787766832 | 27.22° C | 74% | 1016 hPa | - | - | 60 W/m² | - |
| 1787766471 | 27.78° C | 78% | 1016 hPa | - | - | 60 W/m² | - |
| 1787766291 | 27.78° C | 77% | 1016 hPa | - | - | 61 W/m² | - |
| 1787766111 | 27.78° C | 76% | 1016 hPa | - | - | 62 W/m² | - |
| 1787765930 | 27.78° C | 75% | 1016 hPa | - | - | 61 W/m² | - |
| 1787765570 | 27.78° C | 73% | 1016 hPa | - | - | 58 W/m² | - |
* Rain since midnight (hover to see other rain measurements)
** Current wind speed in m/s (hover to see current wind gust speed)